TimeEDT,TemperatureF,Dew PointF,Humidity,Sea Level PressureIn,VisibilityMPH,Wind Direction,Wind SpeedMPH,Gust SpeedMPH,PrecipitationIn,Events,Conditions,WindDirDegrees,DateUTC
12:54 AM,57.9,45.0,62,30.12,10.0,Calm,Calm,-,N/A,,Clear,0,2014-04-12 04:54:00
1:54 AM,59.0,44.1,58,30.11,10.0,SSE,3.5,-,N/A,,Clear,150,2014-04-12 05:54:00
2:54 AM,59.0,45.0,60,30.11,10.0,South,3.5,-,N/A,,Clear,190,2014-04-12 06:54:00
3:54 AM,55.9,45.0,67,30.11,10.0,SSW,3.5,-,N/A,,Clear,200,2014-04-12 07:54:00
4:54 AM,51.1,45.0,80,30.12,10.0,Calm,Calm,-,N/A,,Clear,0,2014-04-12 08:54:00
5:54 AM,50.0,44.1,80,30.12,10.0,Calm,Calm,-,N/A,,Clear,0,2014-04-12 09:54:00
6:54 AM,53.1,46.0,77,30.15,10.0,Calm,Calm,-,N/A,,Clear,0,2014-04-12 10:54:00
7:54 AM,55.9,48.0,75,30.17,10.0,Calm,Calm,-,N/A,,Clear,0,2014-04-12 11:54:00
8:54 AM,62.1,48.0,60,30.19,10.0,Variable,3.5,-,N/A,,Clear,0,2014-04-12 12:54:00
9:54 AM,70.0,46.0,42,30.19,10.0,North,6.9,-,N/A,,Clear,360,2014-04-12 13:54:00
10:54 AM,75.0,48.0,38,30.20,10.0,NNE,12.7,17.3,N/A,,Clear,30,2014-04-12 14:54:00
11:54 AM,78.1,48.0,35,30.20,10.0,NE,9.2,-,N/A,,Clear,40,2014-04-12 15:54:00
12:54 PM,80.1,48.0,32,30.19,10.0,NE,9.2,-,N/A,,Clear,40,2014-04-12 16:54:00
1:54 PM,80.1,46.9,31,30.16,10.0,Variable,4.6,-,N/A,,Partly Cloudy,0,2014-04-12 17:54:00
2:54 PM,81.0,46.9,30,30.14,10.0,East,8.1,-,N/A,,Scattered Clouds,80,2014-04-12 18:54:00
3:54 PM,81.0,46.0,29,30.12,10.0,East,6.9,-,N/A,,Partly Cloudy,100,2014-04-12 19:54:00
4:54 PM,80.1,44.1,28,30.11,10.0,SE,9.2,-,N/A,,Partly Cloudy,140,2014-04-12 20:54:00
5:54 PM,80.1,42.1,26,30.10,10.0,SSE,6.9,-,N/A,,Clear,150,2014-04-12 21:54:00
6:54 PM,78.1,42.1,28,30.09,10.0,SSE,5.8,-,N/A,,Clear,160,2014-04-12 22:54:00
7:54 PM,75.0,43.0,32,30.11,10.0,South,3.5,-,N/A,,Clear,170,2014-04-12 23:54:00
8:54 PM,66.9,46.0,47,30.13,10.0,Calm,Calm,-,N/A,,Clear,0,2014-04-13 00:54:00
9:54 PM,70.0,45.0,41,30.14,10.0,SSE,4.6,-,N/A,,Clear,160,2014-04-13 01:54:00
10:54 PM,68.0,45.0,43,30.13,10.0,South,4.6,-,N/A,,Clear,170,2014-04-13 02:54:00
11:54 PM,66.9,46.0,47,30.14,10.0,South,8.1,-,N/A,,Clear,170,2014-04-13 03:54:00